Dewpoint
67 70 72 71 68 68 67 67 68 70 70 71 71 71 70 70 69 69 69 68 67 66 66 65 64 64 64 65 65 65 65 65 66 65 65 64 64 62 62 63 63 63 63
68 70 71 70 68 68 68 68 68 69 70 70 70 70 70 70 69 69 69 68 67 66 66 65 64 64 63 63 63 63 64 64 64 64 63 63 62 63 63 63 62 61 61
69 70 71 70 68 68 68 68 69 70 69 69 69 69 69 69 69 69 68 68 67 66 66 65 65 64 62 61 62 62 62 61 61 61 64 61 61 61 63 63 62 60 60
69 70 71 70 68 68 69 69 69 69 70 70 69 69 68 68 68 68 68 68 67 66 66 66 65 64 62 62 63 63 64 64 63 62 60 63 60 61 62 61 62 61 60
69 70 70 70 68 68 69 70 69 70 70 70 69 69 68 68 68 68 68 68 67 66 66 66 65 62 61 62 63 63 64 63 60 58 59 61 60 62 62 62 61 61 60
69 70 70 69 68 68 70 71 70 70 70 70 69 69 68 68 68 68 68 68 67 66 65 64 63 62 62 62 63 63 63 62 59 57 59 60 59 62 61 61 61 61 61
69 70 69 69 68 68 70 71 70 69 69 69 69 69 69 68 68 68 68 68 67 66 65 64 63 62 62 62 63 62 63 63 61 59 59 61 59 62 61 61 61 60 60
68 69 69 69 68 68 70 70 70 69 69 68 68 69 69 68 67 67 67 68 68 67 65 64 63 63 63 63 63 62 63 63 61 60 59 59 60 63 61 61 61 60 60
68 68 68 69 68 68 68 69 69 68 68 68 67 68 68 67 67 67 67 67 67 66 65 64 64 63 63 63 63 63 62 63 61 61 61 60 63 64 63 62 61 61 61
68 68 68 68 68 68 68 68 68 68 67 67 67 67 67 67 67 67 67 67 66 67 66 65 64 63 63 63 62 62 62 63 62 62 60 60 63 64 64 64 64 63 63
66 67 67 68 68 67 67 67 67 67 67 67 67 67 67 66 66 66 66 65 66 65 65 65 64 63 63 62 62 61 62 62 62 62 60 61 62 64 64 64 63 63 63
63 65 67 67 67 67 66 66 66 66 67 67 67 66 65 65 65 65 64 64 64 64 64 64 64 63 63 62 62 62 62 62 62 63 62 61 62 64 65 63 63 62 63
60 63 66 66 67 66 65 66 65 66 66 66 66 65 65 64 63 64 63 63 63 64 63 63 63 63 62 61 61 62 62 63 64 63 62 61 62 64 64 65 66 65 64
59 61 64 66 66 65 65 64 64 65 65 65 65 65 64 63 62 62 61 61 61 63 62 61 61 60 60 62 62 63 63 62 61 61 59 58 60 63 64 65 64 63 62
60 60 62 64 65 64 64 64 64 64 64 64 64 65 64 62 61 62 63 62 62 62 61 61 61 61 62 63 63 63 62 53 51 50 50 49 55 62 62 60 61 60 58
61 60 61 63 63 64 63 63 63 64 64 64 64 64 64 63 62 63 63 63 62 62 61 61 63 63 63 61 53 51 45 43 42 45 46 46 56 59 61 57 53 52 50
63 62 62 61 62 63 63 62 62 63 63 63 63 64 64 65 64 63 64 63 62 62 62 64 64 62 50 48 44 43 40 39 41 41 43 48 46 50 54 53 54 46 41
64 64 63 62 62 62 62 62 61 62 63 63 63 64 65 66 66 65 65 65 65 64 64 64 58 52 49 47 42 40 37 38 38 38 40 40 39 37 41 48 50 46 44
64 65 65 64 63 62 62 63 63 63 63 63 64 65 66 66 66 65 64 64 65 64 62 57 52 50 47 43 40 36 36 36 36 37 37 37 37 36 36 39 39 38 43
64 65 66 65 65 64 64 65 65 65 65 65 65 65 66 66 66 65 64 63 63 61 55 51 49 47 42 38 37 33 37 36 36 37 37 37 37 37 37 36 36 36 41
61 63 65 65 66 66 65 65 65 65 65 66 65 66 65 66 65 64 64 63 61 57 52 48 43 39 36 38 32 32 38 36 35 36 37 37 37 38 37 37 37 37 38
58 62 63 65 66 66 66 66 65 65 66 66 66 66 65 65 65 64 63 60 58 54 50 44 40 38 38 38 30 31 24 30 35 36 37 38 38 38 38 38 38 39 39
55 60 63 64 65 67 66 66 65 65 64 64 65 65 65 65 65 64 61 57 54 51 48 43 40 37 35 38 36 28 25 19 33 35 37 38 38 38 39 39 39 39 40
49 56 61 63 64 66 67 65 65 64 63 64 64 65 65 65 64 62 58 55 52 49 45 41 38 36 35 33 38 39 36 34 29 23 37 38 39 38 39 39 39 40 41
46 54 59 62 63 65 66 66 65 64 64 64 64 64 64 61 61 58 56 53 50 47 43 39 37 35 35 36 35 38 39 39 39 36 33 36 39 39 39 39 39 40 41
44 53 59 62 63 64 65 65 65 64 63 63 63 62 62 59 57 55 53 52 49 45 41 39 38 37 37 38 39 39 38 37 38 38 37 38 37 38 39 39 39 40 39
Wind_Speed
13 19 21 20 20 23 22 22 20 19 17 17 17 17 17 17 16 16 16 15 14 15 15 15 15 16 16 16 15 14 14 13 12 12 11 12 13 13 13 15 14 13 15
23 21 22 22 22 22 22 21 20 19 18 17 16 16 15 15 15 15 14 14 14 14 14 14 15 15 14 13 12 12 10 9 8 10 9 8 10 11 13 14 13 12 13
23 22 20 22 23 23 22 20 18 18 19 17 15 14 14 14 14 14 13 12 12 13 13 12 12 12 12 12 10 10 8 7 5 3 3 4 5 9 11 11 11 11 11
21 21 19 21 23 23 23 20 18 18 18 17 15 14 13 13 14 13 11 11 11 12 11 10 9 9 9 9 9 9 9 8 7 4 2 3 2 6 9 10 9 10 10
18 19 19 21 23 22 22 20 18 17 17 18 16 14 12 12 12 12 11 10 9 10 9 9 7 7 8 7 8 9 10 10 10 8 4 7 4 3 6 8 9 9 8
17 15 20 22 22 21 21 20 18 17 17 17 17 15 13 11 11 9 9 9 8 8 8 7 6 5 6 7 8 9 10 10 10 10 4 8 5 4 5 6 7 6 7
15 14 18 21 22 21 20 19 18 17 17 17 18 17 15 12 10 10 8 8 7 7 6 5 3 2 4 7 8 10 12 11 9 9 5 8 5 5 3 3 4 4 4
20 17 16 19 21 21 20 20 18 17 16 16 16 16 15 14 12 9 8 8 7 6 5 3 1 2 5 6 8 9 10 10 8 8 8 5 4 4 2 2 2 2 2
15 18 15 15 17 20 21 21 20 18 17 16 16 16 15 13 12 11 9 8 7 5 4 3 0 3 5 7 8 9 9 9 8 8 4 3 5 4 3 3 3 3 2
15 16 17 15 15 16 16 21 21 20 19 17 16 14 14 13 12 11 10 9 8 7 6 3 2 3 5 6 8 9 9 6 7 9 6 4 8 6 7 7 6 5 4
14 15 16 17 16 16 16 17 20 20 20 18 15 14 12 10 11 10 10 9 8 7 6 4 3 4 6 7 7 9 9 5 6 6 3 4 8 8 9 7 6 7 6
21 18 17 17 17 18 14 14 16 15 14 14 13 13 11 10 9 9 9 9 9 8 6 5 4 5 6 7 7 9 5 5 5 6 4 3 9 8 7 8 8 8 6
22 19 18 18 17 18 16 15 13 13 14 14 14 14 13 10 9 9 8 8 8 8 6 5 4 4 5 6 6 6 8 8 7 8 9 6 7 8 11 10 10 9 6
20 20 16 16 19 18 13 16 15 14 13 14 15 15 14 12 12 11 11 10 9 8 8 5 5 5 6 7 6 6 4 6 7 7 9 9 4 6 6 8 12 16 16
24 20 21 18 18 19 18 15 14 15 15 15 15 15 14 14 15 13 13 11 10 8 9 8 7 6 6 4 4 4 4 8 9 9 10 15 15 13 13 14 15 15 15
23 27 25 24 23 20 20 19 18 16 15 15 14 15 17 15 15 13 12 12 13 12 10 9 6 4 3 3 6 9 9 9 9 10 10 12 16 15 14 15 15 16 14
30 27 31 31 27 26 26 23 21 19 17 17 16 16 17 16 15 14 14 14 15 13 11 9 5 5 8 10 10 10 9 9 12 11 12 13 14 17 16 14 13 13 12
25 31 30 27 30 28 26 22 21 21 20 19 18 15 18 18 17 15 14 14 13 12 11 10 8 8 7 7 7 8 9 8 10 11 11 11 11 11 12 13 12 14 12
31 29 29 28 31 31 25 20 18 18 19 18 17 17 19 19 18 17 16 15 14 13 13 13 8 8 7 7 7 7 7 9 9 10 12 10 11 12 12 13 13 14 13
29 28 27 27 27 27 21 19 16 16 18 17 18 18 18 18 19 18 16 16 15 14 12 12 12 5 5 8 7 6 6 6 7 8 9 9 10 11 10 11 11 12 13
24 25 28 27 29 25 24 25 24 28 22 18 18 17 19 19 20 20 16 17 16 18 18 16 10 10 4 4 6 3 3 1 3 5 5 7 8 7 8 7 8 8 11
30 31 27 30 28 30 28 28 21 21 18 18 16 17 20 20 21 20 20 20 19 18 19 17 13 7 4 3 5 3 4 4 3 1 2 5 7 8 10 9 9 11 10
33 29 32 33 34 33 29 22 12 12 8 15 21 22 21 21 23 21 21 20 21 20 23 21 17 14 10 3 5 5 3 7 1 1 2 2 7 9 10 10 13 13 13
36 35 33 33 34 33 31 28 32 30 30 29 23 18 18 20 21 21 22 22 23 19 22 20 16 14 12 12 4 4 5 5 5 3 2 2 6 4 5 7 8 9 8
25 30 34 33 31 30 33 34 31 30 26 20 19 20 20 18 20 20 21 22 22 19 20 21 17 18 12 12 8 6 3 3 3 3 6 4 4 2 2 5 5 6 8
22 23 21 22 30 32 34 35 36 36 28 22 24 22 21 19 18 20 22 22 22 21 22 20 18 17 13 10 9 8 7 4 5 4 5 5 11 6 11 3 7 9 10
Wind_Direction
186 168 166 157 140 132 127 125 123 118 113 113 112 110 110 110 108 106 103 104 104 104 99 95 92 88 84 79 74 71 70 69 69 75 84 88 88 89 81 78 69 62 62
150 165 163 155 142 136 132 131 131 126 121 119 114 111 107 107 108 108 109 110 112 109 103 100 95 90 86 81 74 67 61 59 65 75 72 88 95 95 91 91 83 73 64
147 159 160 152 144 140 135 135 135 132 128 124 117 112 112 115 114 116 115 117 116 114 108 103 97 90 86 81 76 73 64 53 27 2 34 73 98 110 105 102 93 83 75
145 154 159 152 148 144 140 139 142 141 136 131 126 124 123 123 122 122 122 121 121 118 117 113 103 91 84 79 73 63 48 21 5 351 191 180 99 112 117 107 103 90 79
140 155 157 152 150 146 142 143 147 145 143 137 135 133 130 129 131 131 130 123 127 125 122 114 101 84 74 63 61 62 51 18 21 23 184 174 183 176 138 117 111 107 99
142 150 154 154 150 147 145 148 149 150 149 146 142 140 138 140 138 137 135 132 127 121 117 108 89 61 47 39 35 41 53 35 31 29 80 173 176 188 154 126 120 113 103
140 146 155 157 151 149 149 151 152 155 158 157 153 148 147 151 148 148 147 145 135 126 118 107 92 52 24 21 22 25 36 26 21 21 352 182 177 188 170 121 102 89 83
147 147 157 160 152 152 154 154 157 162 168 167 162 154 155 157 154 156 158 160 155 140 133 120 72 7 5 7 10 14 29 20 14 15 25 173 180 184 174 158 155 154 162
140 147 154 157 156 159 161 160 163 168 174 175 171 166 163 163 164 166 170 168 165 161 157 157 263 344 350 351 353 356 6 10 20 6 10 157 185 202 213 230 227 226 239
144 154 159 155 158 162 167 168 170 174 178 181 180 176 173 173 176 182 184 187 183 180 187 188 244 299 319 329 328 329 334 355 9 9 16 166 186 209 232 243 240 243 250
162 164 165 167 166 166 170 175 176 179 182 184 185 184 181 182 189 194 198 200 200 203 208 216 242 289 305 314 328 327 337 0 3 11 34 154 188 223 241 257 268 271 280
179 180 174 172 173 169 173 175 179 181 184 186 187 186 185 194 200 204 210 211 210 211 218 231 254 284 306 319 336 337 338 330 341 347 6 265 218 237 256 271 280 281 289
187 179 181 175 174 173 176 175 182 183 185 190 192 190 190 195 207 217 222 223 220 223 226 220 241 261 283 298 313 312 312 342 354 23 13 333 254 284 303 323 299 289 342
184 189 185 181 175 181 176 180 185 187 191 194 198 194 192 199 207 216 221 223 220 222 234 229 232 244 265 283 287 321 354 12 16 24 17 19 318 297 354 43 70 78 74
187 188 187 184 187 182 180 184 188 195 194 201 201 198 196 203 211 214 223 221 223 216 221 226 236 234 243 261 347 47 48 55 57 60 64 53 55 69 79 80 77 75 71
190 193 185 188 191 188 188 188 192 196 199 202 205 202 202 204 215 216 229 225 220 215 222 223 226 191 164 97 78 77 71 64 61 61 66 55 66 72 74 80 83 75 64
199 192 192 192 190 193 195 191 192 196 197 204 208 205 201 206 210 217 226 228 225 215 221 209 165 124 104 103 88 78 65 64 76 74 74 81 75 71 78 74 82 70 52
198 199 198 192 194 197 201 199 197 195 198 203 206 205 203 202 207 210 220 222 213 198 191 173 158 137 122 122 100 70 78 91 92 88 91 82 73 60 56 59 56 33 19
204 202 200 197 196 198 199 197 202 202 203 206 206 204 202 202 203 202 206 208 180 174 174 170 155 152 143 127 115 80 89 98 96 101 91 85 74 67 61 48 42 29 17
206 204 205 200 199 196 194 195 198 203 209 206 207 208 202 198 197 197 193 191 176 168 163 158 157 133 144 145 124 98 128 101 100 104 101 82 78 66 58 43 27 18 17
209 205 202 198 201 187 191 195 200 208 206 210 209 203 203 198 196 193 188 181 173 173 173 162 142 147 122 143 129 92 94 126 85 86 105 90 66 59 44 32 30 23 5
210 204 202 202 196 196 196 200 204 203 209 206 202 207 206 197 194 190 182 181 176 169 170 170 165 148 120 152 161 121 198 240 266 191 108 74 56 30 22 17 24 11 15
214 203 202 202 199 198 199 190 181 173 173 194 205 208 206 194 191 189 181 175 176 168 177 181 180 169 161 149 189 166 166 226 310 275 194 45 38 19 10 6 4 7 12
218 216 209 205 201 200 192 191 192 198 204 210 205 202 194 191 190 184 180 175 176 174 175 180 178 176 155 171 141 110 100 138 193 290 303 324 3 14 355 352 354 360 19
230 218 210 205 203 199 196 196 194 202 210 202 200 195 190 187 186 183 180 175 175 173 175 172 171 170 173 170 156 151 127 94 108 193 276 283 292 272 313 334 348 9 29
220 222 221 215 209 199 196 198 198 201 199 194 192 189 192 190 187 186 181 180 176 171 171 170 167 167 167 158 159 153 157 162 184 177 247 311 317 291 320 353 8 17 26